This is the latest recevied weather packets stored in our database for station/object M0TJX-1. If no packets are shown the sender has not sent any weather packets the latest 10 day(s).
| Time | Temp. | Humidity | Pressure | Rain* | Wind** | Luminosity | Snow |
|---|---|---|---|---|---|---|---|
| 1787538328 | 13.33° C | 83% | 1022.3 hPa | 0 mm | - | - | - |
| 1787537428 | 12.78° C | 83% | 1022.4 hPa | 0 mm | - | - | - |
| 1787536528 | 13.33° C | 82% | 1022.3 hPa | 0 mm | - | - | - |
| 1787535628 | 13.33° C | 82% | 1022.1 hPa | 0 mm | - | - | - |
| 1787534728 | 13.33° C | 82% | 1022.3 hPa | 0 mm | - | - | - |
| 1787533828 | 13.33° C | 81% | 1022.3 hPa | 0 mm | - | - | - |
| 1787532928 | 13.33° C | 80% | 1022.3 hPa | 0 mm | - | - | - |
| 1787532028 | 13.89° C | 80% | 1022.4 hPa | 0 mm | - | - | - |
| 1787530228 | 14.44° C | 79% | 1022.6 hPa | 0 mm | - | - | - |
| 1787529328 | 14.44° C | 78% | 1022.6 hPa | 0 mm | - | - | - |
| 1787528428 | 14.44° C | 77% | 1022.7 hPa | 0 mm | - | - | - |
| 1787527528 | 15° C | 75% | 1022.7 hPa | 0 mm | - | - | - |
| 1787526628 | 15° C | 74% | 1022.7 hPa | 0 mm | - | - | - |
| 1787525728 | 15.56° C | 75% | 1022.8 hPa | 0 mm | - | - | - |
| 1787524830 | 15.56° C | 73% | 1022.7 hPa | 0 mm | - | - | - |
| 1787523928 | 16.11° C | 71% | 1022.8 hPa | 0 mm | - | - | - |
| 1787523028 | 16.11° C | 70% | 1022.9 hPa | 0 mm | - | - | - |
| 1787522128 | 16.67° C | 68% | 1022.9 hPa | 0 mm | - | - | - |
| 1787521228 | 16.67° C | 66% | 1023.2 hPa | 0 mm | - | - | - |
| 1787520328 | 17.22° C | 63% | 1023 hPa | 0 mm | - | - | - |
| 1787519428 | 17.22° C | 55% | 1023.1 hPa | 0 mm | - | - | - |
| 1787518528 | 17.78° C | 53% | 1022.5 hPa | 0 mm | - | - | - |
| 1787517628 | 18.33° C | 52% | 1022.6 hPa | 0 mm | - | - | - |
| 1787516728 | 18.33° C | 52% | 1022.7 hPa | 0 mm | - | - | - |
| 1787515828 | 18.89° C | 51% | 1022.9 hPa | 0 mm | - | - | - |
* Rain latest hour (hover to see other rain measurements)
** Current wind speed in m/s (hover to see current wind gust speed)